| time (UTC) | temp F | wind direction | speed MPH | gust MPH | rain 1hr in | rain 24hr in | rain mn in | humidity % | barometer mb |
| 20260504100512 | 58 | 291 | 17.0 | 25.0 | 0.02 | 0.18 | 0.13 | 69 | 1009.0 |
| 20260504081518 | 62 | 293 | 19.0 | 29.0 | 0.00 | 0.21 | 0.11 | 62 | 1007.6 |
| 20260504081010 | 62 | 285 | 25.0 | 36.0 | 0.00 | 0.21 | 0.11 | 60 | 1007.7 |
| 20260504080508 | 62 | 262 | 24.0 | 36.0 | 0.00 | 0.21 | 0.11 | 60 | 1007.5 |
| 20260504050506 | 58 | 276 | 17.0 | 29.0 | 0.00 | 0.23 | 0.09 | 77 | 1007.3 |
| 20260504050012 | 58 | 238 | 19.0 | 29.0 | 0.00 | 0.23 | 0.09 | 77 | 1007.2 |
| 20260504045506 | 57 | 258 | 20.0 | 28.0 | 0.00 | 0.23 | 0.09 | 78 | 1007.2 |
| 20260504045007 | 56 | 250 | 22.0 | 32.0 | 0.00 | 0.23 | 0.09 | 78 | 1007.2 |
| 20260504044516 | 56 | 255 | 23.0 | 32.0 | 0.00 | 0.23 | 0.09 | 80 | 1007.0 |
| 20260504044011 | 55 | 255 | 19.0 | 26.0 | 0.00 | 0.24 | 0.09 | 80 | 1007.1 |
| 20260504043513 | 54 | 250 | 20.0 | 28.0 | 0.00 | 0.24 | 0.09 | 80 | 1007.1 |
| 20260504043022 | 54 | 236 | 20.0 | 31.0 | 0.01 | 0.25 | 0.09 | 79 | 1007.3 |
| 20260504042507 | 54 | 255 | 24.0 | 39.0 | 0.01 | 0.25 | 0.09 | 80 | 1007.4 |
| 20260504042010 | 54 | 246 | 27.0 | 39.0 | 0.01 | 0.25 | 0.09 | 81 | 1007.5 |
| 20260504041503 | 55 | 231 | 24.0 | 32.0 | 0.01 | 0.25 | 0.09 | 78 | 1007.9 |
| 20260504041004 | 56 | 248 | 22.0 | 31.0 | 0.02 | 0.25 | 0.09 | 75 | 1007.5 |
| 20260504040503 | 56 | 240 | 23.0 | 29.0 | 0.03 | 0.25 | 0.09 | 74 | 1007.3 |
| 20260504040010 | 56 | 243 | 19.0 | 30.0 | 0.05 | 0.25 | 0.09 | 74 | 1007.0 |
| 20260504035507 | 56 | 229 | 22.0 | 30.0 | 0.05 | 0.25 | 0.09 | 74 | 1007.2 |
| 20260504035007 | 55 | 257 | 19.0 | 30.0 | 0.05 | 0.26 | 0.09 | 77 | 1007.4 |
| 20260504034518 | 55 | 252 | 18.0 | 42.0 | 0.05 | 0.26 | 0.09 | 79 | 1007.6 |
| 20260504034007 | 55 | 252 | 17.0 | 42.0 | 0.05 | 0.26 | 0.09 | 78 | 1007.8 |
| 20260504033511 | 56 | 290 | 23.0 | 30.0 | 0.04 | 0.25 | 0.08 | 76 | 1008.0 |
| 20260504033022 | 56 | 260 | 24.0 | 30.0 | 0.03 | 0.25 | 0.07 | 75 | 1007.6 |
| 20260504032507 | 55 | 275 | 17.0 | 28.0 | 0.03 | 0.25 | 0.07 | 78 | 1007.3 |
| 20260504032012 | 55 | 272 | 21.0 | 29.0 | 0.03 | 0.25 | 0.07 | 78 | 1007.6 |
| 20260504031524 | 55 | 284 | 20.0 | 33.0 | 0.03 | 0.25 | 0.07 | 80 | 1007.6 |
| 20260504031007 | 55 | 271 | 25.0 | 33.0 | 0.03 | 0.24 | 0.07 | 79 | 1007.7 |
| 20260504030510 | 56 | 271 | 24.0 | 33.0 | 0.02 | 0.23 | 0.06 | 78 | 1007.5 |
| 20260504030014 | 57 | 293 | 23.0 | 29.0 | 0.00 | 0.21 | 0.03 | 74 | 1007.7 |
| 20260504025503 | 58 | 279 | 18.0 | 29.0 | 0.00 | 0.21 | 0.03 | 74 | 1007.5 |
| 20260504025003 | 57 | 273 | 16.0 | 25.0 | 0.00 | 0.21 | 0.03 | 76 | 1007.5 |
| 20260504024512 | 57 | 255 | 17.0 | 29.0 | 0.00 | 0.21 | 0.03 | 75 | 1007.5 |
| 20260504024007 | 57 | 245 | 22.0 | 29.0 | 0.00 | 0.21 | 0.03 | 74 | 1007.7 |
| 20260504023506 | 57 | 257 | 19.0 | 29.0 | 0.00 | 0.21 | 0.03 | 73 | 1007.8 |
| 20260504023018 | 57 | 250 | 14.0 | 20.0 | 0.00 | 0.21 | 0.03 | 73 | 1007.6 |
| 20260504022511 | 56 | 245 | 11.0 | 15.0 | 0.00 | 0.21 | 0.03 | 73 | 1007.5 |
| 20260504022010 | 56 | 279 | 11.0 | 15.0 | 0.00 | 0.21 | 0.03 | 74 | 1007.5 |
| 20260504021526 | 56 | 272 | 11.0 | 17.0 | 0.00 | 0.21 | 0.03 | 74 | 1007.4 |
| 20260504021006 | 56 | 287 | 11.0 | 22.0 | 0.00 | 0.21 | 0.03 | 74 | 1007.6 |
| 20260504020508 | 56 | 281 | 13.0 | 23.0 | 0.00 | 0.21 | 0.03 | 73 | 1007.7 |
| 20260504020026 | 56 | 272 | 17.0 | 25.0 | 0.00 | 0.21 | 0.03 | 73 | 1007.6 |
| 20260504015509 | 56 | 272 | 19.0 | 46.0 | 0.00 | 0.21 | 0.03 | 73 | 1007.7 |
| 20260504015013 | 55 | 264 | 25.0 | 46.0 | 0.00 | 0.21 | 0.03 | 73 | 1007.9 |
| 20260504014508 | 56 | 240 | 25.0 | 32.0 | 0.03 | 0.21 | 0.03 | 72 | 1008.0 |
| 20260504014005 | 56 | 250 | 17.0 | 23.0 | 0.03 | 0.21 | 0.03 | 72 | 1007.7 |
| 20260504013506 | 55 | 244 | 16.0 | 23.0 | 0.03 | 0.21 | 0.03 | 73 | 1007.8 |
| 20260504013016 | 55 | 254 | 17.0 | 30.0 | 0.03 | 0.21 | 0.03 | 75 | 1008.0 |
| 20260504012507 | 55 | 258 | 22.0 | 30.0 | 0.03 | 0.21 | 0.03 | 75 | 1008.1 |
| 20260504012008 | 55 | 255 | 16.0 | 23.0 | 0.03 | 0.21 | 0.03 | 75 | 1008.1 |
| 20260504011519 | 55 | 255 | 17.0 | 23.0 | 0.03 | 0.21 | 0.03 | 75 | 1008.2 |
| 20260504011012 | 55 | 243 | 18.0 | 23.0 | 0.03 | 0.21 | 0.03 | 74 | 1008.2 |
| 20260504010510 | 54 | 249 | 19.0 | 23.0 | 0.03 | 0.21 | 0.03 | 75 | 1008.2 |
| 20260504010024 | 54 | 224 | 17.0 | 33.0 | 0.03 | 0.21 | 0.03 | 76 | 1008.1 |
| 20260504005507 | 53 | 230 | 17.0 | 51.0 | 0.03 | 0.21 | 0.03 | 77 | 1008.0 |
| 20260504005014 | 53 | 253 | 26.0 | 51.0 | 0.03 | 0.21 | 0.03 | 78 | 1008.2 |
| 20260504004528 | 57 | 256 | 39.0 | 49.0 | 0.00 | 0.18 | 0.00 | 72 | 1008.3 |
| 20260504004010 | 59 | 264 | 22.0 | 32.0 | 0.00 | 0.18 | 0.00 | 65 | 1008.0 |
| 20260504003513 | 59 | 248 | 20.0 | 30.0 | 0.00 | 0.18 | 0.00 | 65 | 1007.9 |
| 20260504003019 | 59 | 248 | 22.0 | 33.0 | 0.00 | 0.18 | 0.00 | 64 | 1008.0 |
| 20260504002505 | 58 | 240 | 21.0 | 33.0 | 0.00 | 0.18 | 0.00 | 66 | 1008.1 |
| 20260504002007 | 58 | 272 | 20.0 | 26.0 | 0.00 | 0.18 | 0.00 | 68 | 1008.2 |
| 20260504001516 | 57 | 286 | 15.0 | 20.0 | 0.00 | 0.18 | 0.00 | 68 | 1008.2 |
| 20260504001006 | 57 | 244 | 13.0 | 20.0 | 0.00 | 0.18 | 0.00 | 69 | 1008.2 |
| 20260504000507 | 57 | 250 | 14.0 | 19.0 | 0.00 | 0.18 | 0.00 | 69 | 1008.4 |
| 20260504000022 | 57 | 257 | 13.0 | 21.0 | 0.00 | 0.18 | 0.00 | 69 | 1008.4 |
| 20260503235507 | 57 | 295 | 14.0 | 21.0 | 0.00 | 0.18 | 0.00 | 67 | 1008.5 |
| 20260503235009 | 56 | 249 | 14.0 | 28.0 | 0.00 | 0.18 | 0.00 | 67 | 1008.4 |
| 20260503234523 | 56 | 254 | 18.0 | 30.0 | 0.00 | 0.18 | 0.00 | 65 | 1008.4 |
| 20260503234009 | 56 | 247 | 24.0 | 30.0 | 0.00 | 0.18 | 0.00 | 68 | 1008.6 |
| 20260503233512 | 56 | 289 | 7.0 | 12.0 | 0.00 | 0.18 | 0.00 | 68 | 1008.5 |
| 20260503233035 | 57 | 281 | 9.0 | 12.0 | 0.00 | 0.18 | 0.00 | 67 | 1008.6 |
| 20260503232510 | 57 | 278 | 6.0 | 13.0 | 0.00 | 0.18 | 0.00 | 68 | 1008.6 |
| 20260503232010 | 57 | 271 | 8.0 | 13.0 | 0.00 | 0.18 | 0.00 | 67 | 1008.8 |
| 20260503231522 | 57 | 257 | 11.0 | 14.0 | 0.00 | 0.18 | 0.00 | 66 | 1008.9 |
| 20260503231007 | 57 | 235 | 11.0 | 14.0 | 0.00 | 0.18 | 0.00 | 66 | 1009.0 |
| 20260503230509 | 57 | 268 | 8.0 | 13.0 | 0.00 | 0.18 | 0.00 | 65 | 1009.0 |
| 20260503230020 | 56 | 256 | 7.0 | 11.0 | 0.00 | 0.18 | 0.00 | 66 | 1009.1 |
| 20260503225507 | 56 | 248 | 8.0 | 14.0 | 0.00 | 0.18 | 0.00 | 67 | 1009.1 |
| 20260503225014 | 56 | 234 | 10.0 | 16.0 | 0.00 | 0.18 | 0.00 | 67 | 1009.3 |
| 20260503224528 | 56 | 250 | 11.0 | 16.0 | 0.00 | 0.18 | 0.00 | 67 | 1009.2 |
| 20260503224012 | 56 | 257 | 9.0 | 18.0 | 0.00 | 0.18 | 0.00 | 68 | 1009.2 |
| 20260503223510 | 56 | 243 | 10.0 | 18.0 | 0.00 | 0.18 | 0.00 | 67 | 1009.2 |
| 20260503223027 | 56 | 243 | 11.0 | 14.0 | 0.00 | 0.18 | 0.00 | 68 | 1009.2 |
| 20260503222508 | 56 | 248 | 10.0 | 13.0 | 0.00 | 0.18 | 0.00 | 70 | 1009.3 |
| 20260503222013 | 56 | 240 | 10.0 | 13.0 | 0.00 | 0.18 | 0.00 | 69 | 1009.4 |
| 20260503221533 | 56 | 247 | 10.0 | 13.0 | 0.00 | 0.18 | 0.00 | 69 | 1009.4 |
| 20260503221010 | 56 | 240 | 10.0 | 13.0 | 0.00 | 0.18 | 0.00 | 70 | 1009.5 |
| 20260503220513 | 56 | 251 | 10.0 | 14.0 | 0.00 | 0.18 | 0.00 | 69 | 1009.5 |
| 20260503220020 | 56 | 254 | 11.0 | 16.0 | 0.00 | 0.18 | 0.00 | 69 | 1009.5 |
| 20260503215506 | 56 | 262 | 12.0 | 16.0 | 0.00 | 0.18 | 0.00 | 68 | 1009.5 |
| 20260503215006 | 56 | 245 | 12.0 | 15.0 | 0.00 | 0.18 | 0.00 | 68 | 1009.5 |
| 20260503214523 | 56 | 249 | 12.0 | 15.0 | 0.00 | 0.18 | 0.00 | 69 | 1009.6 |
| 20260503214009 | 55 | 255 | 11.0 | 19.0 | 0.00 | 0.18 | 0.00 | 69 | 1009.6 |
| 20260503213511 | 56 | 237 | 13.0 | 23.0 | 0.00 | 0.18 | 0.00 | 69 | 1009.6 |
| 20260503213026 | 56 | 237 | 14.0 | 26.0 | 0.00 | 0.18 | 0.00 | 68 | 1009.7 |
| 20260503212515 | 56 | 269 | 17.0 | 29.0 | 0.00 | 0.18 | 0.00 | 68 | 1009.7 |
| 20260503212014 | 56 | 240 | 21.0 | 34.0 | 0.00 | 0.18 | 0.00 | 68 | 1009.8 |
| 20260503211528 | 57 | 266 | 28.0 | 39.0 | 0.00 | 0.18 | 0.00 | 65 | 1009.9 |
| 20260503211010 | 57 | 267 | 25.0 | 39.0 | 0.00 | 0.18 | 0.00 | 63 | 1009.9 |
| 20260503210508 | 58 | 269 | 14.0 | 18.0 | 0.00 | 0.18 | 0.00 | 63 | 1009.8 |
| 20260503210032 | 58 | 233 | 11.0 | 18.0 | 0.00 | 0.18 | 0.00 | 63 | 1009.5 |
| 20260503205508 | 58 | 245 | 12.0 | 17.0 | 0.00 | 0.18 | 0.18 | 64 | 1009.6 |
| 20260503205013 | 58 | 248 | 11.0 | 15.0 | 0.00 | 0.18 | 0.18 | 65 | 1009.6 |
| 20260503204519 | 57 | 248 | 12.0 | 15.0 | 0.00 | 0.18 | 0.18 | 65 | 1009.6 |
| 20260503204009 | 57 | 258 | 11.0 | 15.0 | 0.00 | 0.18 | 0.18 | 65 | 1009.6 |
| 20260503203515 | 57 | 257 | 10.0 | 13.0 | 0.00 | 0.18 | 0.18 | 66 | 1009.6 |
| 20260503203026 | 57 | 240 | 10.0 | 13.0 | 0.00 | 0.18 | 0.18 | 66 | 1009.7 |
| 20260503202509 | 56 | 248 | 9.0 | 11.0 | 0.00 | 0.18 | 0.18 | 66 | 1009.7 |
| 20260503202011 | 56 | 243 | 8.0 | 10.0 | 0.00 | 0.18 | 0.18 | 67 | 1009.8 |
| 20260503201524 | 57 | 248 | 9.0 | 11.0 | 0.00 | 0.18 | 0.18 | 66 | 1009.8 |
| 20260503201014 | 57 | 257 | 9.0 | 11.0 | 0.00 | 0.18 | 0.18 | 66 | 1009.8 |
| 20260503200514 | 57 | 252 | 8.0 | 10.0 | 0.00 | 0.18 | 0.18 | 66 | 1009.8 |
| 20260503200026 | 57 | 255 | 8.0 | 10.0 | 0.00 | 0.18 | 0.18 | 66 | 1009.7 |
| 20260503195510 | 57 | 255 | 8.0 | 11.0 | 0.00 | 0.18 | 0.18 | 66 | 1009.7 |
| 20260503195013 | 57 | 246 | 9.0 | 11.0 | 0.00 | 0.18 | 0.18 | 66 | 1009.8 |
| 20260503194530 | 57 | 250 | 9.0 | 12.0 | 0.00 | 0.18 | 0.18 | 66 | 1009.9 |
| 20260503194009 | 57 | 255 | 10.0 | 14.0 | 0.00 | 0.18 | 0.18 | 65 | 1010.0 |
| 20260503193514 | 57 | 260 | 10.0 | 14.0 | 0.00 | 0.18 | 0.18 | 66 | 1010.0 |
| 20260503193017 | 57 | 274 | 9.0 | 14.0 | 0.00 | 0.18 | 0.18 | 66 | 1010.0 |
| 20260503192509 | 57 | 259 | 11.0 | 14.0 | 0.00 | 0.18 | 0.18 | 66 | 1010.0 |
| 20260503192006 | 57 | 248 | 12.0 | 14.0 | 0.00 | 0.18 | 0.18 | 66 | 1009.9 |
| 20260503191524 | 57 | 252 | 12.0 | 15.0 | 0.00 | 0.18 | 0.18 | 66 | 1009.9 |
| 20260503191008 | 57 | 257 | 12.0 | 15.0 | 0.00 | 0.18 | 0.18 | 66 | 1009.8 |
| 20260503190511 | 57 | 250 | 11.0 | 14.0 | 0.00 | 0.18 | 0.18 | 66 | 1009.8 |
| 20260503190026 | 57 | 248 | 11.0 | 14.0 | 0.00 | 0.18 | 0.18 | 66 | 1009.6 |
| 20260503185510 | 57 | 253 | 11.0 | 15.0 | 0.00 | 0.18 | 0.18 | 66 | 1009.5 |
| 20260503185009 | 57 | 245 | 12.0 | 16.0 | 0.00 | 0.18 | 0.18 | 65 | 1009.6 |
| 20260503184526 | 58 | 243 | 13.0 | 16.0 | 0.00 | 0.18 | 0.18 | 65 | 1009.5 |
| 20260503184011 | 58 | 264 | 12.0 | 16.0 | 0.00 | 0.18 | 0.18 | 65 | 1009.5 |
| 20260503183515 | 58 | 258 | 13.0 | 19.0 | 0.00 | 0.18 | 0.18 | 64 | 1009.5 |
| 20260503183027 | 58 | 258 | 14.0 | 19.0 | 0.00 | 0.18 | 0.18 | 64 | 1009.4 |
| 20260503182510 | 58 | 255 | 15.0 | 20.0 | 0.00 | 0.18 | 0.18 | 64 | 1009.3 |
| 20260503182014 | 58 | 242 | 15.0 | 20.0 | 0.00 | 0.18 | 0.18 | 64 | 1009.4 |
| 20260503181519 | 58 | 250 | 14.0 | 18.0 | 0.00 | 0.18 | 0.18 | 64 | 1009.3 |
| 20260503181007 | 58 | 245 | 13.0 | 21.0 | 0.00 | 0.18 | 0.18 | 64 | 1009.3 |
| 20260503180509 | 59 | 267 | 15.0 | 21.0 | 0.00 | 0.18 | 0.18 | 63 | 1009.2 |
| 20260503180024 | 58 | 253 | 14.0 | 18.0 | 0.00 | 0.18 | 0.18 | 64 | 1009.2 |
| 20260503175512 | 59 | 243 | 14.0 | 18.0 | 0.00 | 0.18 | 0.18 | 63 | 1009.2 |
| 20260503175011 | 59 | 247 | 13.0 | 18.0 | 0.00 | 0.18 | 0.18 | 63 | 1009.1 |
| 20260503174531 | 59 | 245 | 13.0 | 17.0 | 0.00 | 0.18 | 0.18 | 63 | 1009.1 |
| 20260503174009 | 59 | 248 | 13.0 | 19.0 | 0.00 | 0.18 | 0.18 | 62 | 1009.1 |
| 20260503173510 | 59 | 240 | 15.0 | 20.0 | 0.00 | 0.18 | 0.18 | 61 | 1009.0 |
| 20260503173034 | 60 | 251 | 13.0 | 21.0 | 0.00 | 0.18 | 0.18 | 61 | 1009.0 |
| 20260503172514 | 60 | 250 | 17.0 | 21.0 | 0.00 | 0.18 | 0.18 | 61 | 1008.9 |
| 20260503172013 | 60 | 270 | 14.0 | 21.0 | 0.00 | 0.18 | 0.18 | 61 | 1008.8 |
| 20260503171534 | 60 | 266 | 15.0 | 21.0 | 0.00 | 0.18 | 0.18 | 62 | 1008.7 |
| 20260503171008 | 60 | 240 | 16.0 | 21.0 | 0.00 | 0.18 | 0.18 | 63 | 1008.6 |
| 20260503170509 | 60 | 255 | 12.0 | 21.0 | 0.00 | 0.18 | 0.18 | 65 | 1008.6 |
| 20260503151009 | 64 | 264 | 20.0 | 25.0 | 0.00 | 0.18 | 0.18 | 57 | 1007.5 |
| 20260503150511 | 64 | 244 | 16.0 | 23.0 | 0.00 | 0.18 | 0.18 | 61 | 1007.4 |
| 20260503131010 | 61 | 309 | 5.0 | 6.0 | 0.00 | 0.18 | 0.18 | 80 | 1007.4 |
| 20260503130511 | 61 | 292 | 5.0 | 7.0 | 0.00 | 0.18 | 0.18 | 81 | 1007.5 |
| 20260503110510 | 60 | 224 | 12.0 | 22.0 | 0.03 | 0.17 | 0.17 | 88 | 1007.4 |